Regional Weather Roundup
Issued by NWS

Home | Current Version | Previous Version | Text Only | Print | Product List | Glossary On
Versions: 1 2 3 4 5 6 7 8 9 10 11 12 13 14 15 16 17 18 19 20 21 22 23 24 25 26 27 28 29 30 31 32 33 34 35 36 37 38 39 40 41 42 43 44 45 46 47 48 49 50
000
ASUS43 KDMX 260307
RWRIA

WEATHER ROUNDUP FOR IOWA
NATIONAL WEATHER SERVICE DES MOINES IA
1000 PM CDT SAT APR 25 2015

NOTE: "FAIR" INDICATES FEW OR NO CLOUDS BELOW 12,000 FEET WITH NO
SIGNIFICANT WEATHER AND/OR OBSTRUCTIONS TO VISIBILITY.

* - THESE STATIONS ARE NOT NWS STATIONS...THUS NOT UNDER NWS
QUALITY CONTROL.  THEY ALSO DO NOT REPORT WEATHER SUCH
AS PRECIPITATION OR FOG.

IAZ001>003-012>014-020>022-031>034-043>046-260400-
   NORTHWEST IOWA

CITY           SKY/WX    TMP DP  RH WIND       PRES   REMARKS
CARROLL *      CLOUDY    48  43  81 E10       29.89R
CHEROKEE *     CLOUDY    50  41  71 E10       29.91R
DENISON *      CLOUDY    48  46  93 NE7       29.88R
LE MARS *      CLOUDY    54  43  66 E10G16    29.91R
ORANGE CITY *  CLOUDY    50  41  71 E9        29.91R
SHELDON *      CLOUDY    50  41  71 E12       29.91R
SIOUX CITY     CLOUDY    54  40  59 E7        29.89R
SPENCER        CLOUDY    50  40  68 E9        29.92R
STORM LAKE *   CLOUDY    50  41  71 E14       29.91R
$$

IAZ055>058-069>071-079>083-090>094-260400-
   SOUTHWEST IOWA

CITY           SKY/WX    TMP DP  RH WIND       PRES   REMARKS
ATLANTIC *     CLOUDY    50  43  76 NE12      29.87R
AUDUBON *      MOCLDY    48  43  81 NE7       29.89R
CLARINDA *     CLOUDY    50  45  81 NE13G22   29.85R
COUNCIL BLFS * CLOUDY    50  48  93 NE12G20   29.86R
CRESTON *      CLOUDY    48  46  93 NE17      29.85R
HARLAN  *      CLOUDY    48  48 100 NE9G15    29.91R
LAMONI         CLOUDY    49  45  86 NE10G16   29.82R
RED OAK *      CLOUDY    50  48  93 NE9       29.85R
SHENANDOAH *   CLOUDY    50  46  87 NE17      29.84R
$$

IAZ047>049-059>061-072>074-084-260400-
   CENTRAL IOWA

CITY           SKY/WX    TMP DP  RH WIND       PRES   REMARKS
AMES           CLOUDY    48  38  68 E9        29.89R
ANKENY *       CLOUDY    48  41  76 NE10      29.87S
CHARITON *     CLOUDY    48  43  81 NE13      29.85R
DES MOINES     CLOUDY    50  40  68 NE16G23   29.87R
GRINNELL*      CLOUDY    46  39  76 NE7       29.88R
KNOXVILLE *    CLOUDY    48  41  76 NE9       29.85R
MARSHALLTOWN   CLOUDY    48  39  71 NE10      29.88R
PELLA *        CLOUDY    48  45  87 NE5       29.87R
PERRY *        CLOUDY    48  43  81 NE9       29.88R
$$

IAZ004>006-015-016-023>025-035-036-260400-
   NORTH CENTRAL IOWA

CITY           SKY/WX    TMP DP  RH WIND       PRES   REMARKS
ALGONA *       CLEAR     45  39  81 NE3       29.92R
CLARION *      MOCLDY    45  41  87 NE6       29.91R
ESTHERVILLE      N/A     41  36  82 NE6       29.92R
FORT DODGE *   CLOUDY    48  39  71 NE6       29.91R
MASON CITY     CLEAR     40  35  83 N5        29.92R
FOREST CITY *  CLEAR     37  36  93 N3        29.91S
IOWA FALLS *   CLOUDY    48  39  71 NE6       29.91R
$$

IAZ007>011-017>019-026>030-037>042-050>054-066-260400-
   NORTHEAST IOWA

CITY           SKY/WX    TMP DP  RH WIND       PRES   REMARKS
CEDAR RAPIDS   CLOUDY    46  38  73 NE15      29.85R
CHARLES CITY * CLEAR     46  37  71 CALM      29.91R
CLINTON *      CLEAR     45  36  70 NE12      29.88S
DECORAH *      CLEAR     46  32  57 CALM      29.89R
DUBUQUE        CLOUDY    45  35  68 NE13      29.88R
MONTICELLO *   CLOUDY    46  41  81 NE5       29.88R
OELWEIN *      MOCLDY    45  37  76 NE5       29.90R
WATERLOO       CLOUDY    47  40  76 NE3       29.89R
$$

IAZ064-065-067-068-078-260400-
   EAST CENTRAL IOWA

CITY           SKY/WX    TMP DP  RH WIND       PRES   REMARKS
DAVENPORT      CLOUDY    45  36  70 NE13      29.85R
IOWA CITY      CLOUDY    47  37  68 NE15      29.86R
MT. PLEASANT * CLOUDY    46  41  81 NE14      29.84R
MUSCATINE *    CLOUDY    48  39  71 NE15G22   29.85R
QUAD CITIES    CLOUDY    46  36  68 NE14      29.85R
$$

IAZ062-063-075>077-085>089-095>099-260400-
   SOUTHEAST IOWA

CITY           SKY/WX    TMP DP  RH WIND       PRES   REMARKS
BURLINGTON     CLOUDY    47  42  83 NE15G22   29.81R
FAIRFIELD *    CLOUDY    46  41  81 NE12      29.84R
FORT MADISON * CLOUDY    46  43  87 NE13G20   29.82R
KEOKUK *       CLOUDY    48  45  87 NE14      29.80R
OSKALOOSA *    CLOUDY    46  41  81 NE12      29.85R
CENTERVILLE *  CLOUDY    46  45  93 NE12      29.83R
OTTUMWA        CLOUDY    47  41  80 NE12      29.84R
WASHINGTON *   CLOUDY    46  46 100 NE14      29.84R
$$

ABBREVIATIONS USED IN REMARKS
   TC - TEMPERATURES IN CELSIUS
  WCI - WIND CHILL INDEX
   HX - HEAT INDEX
  VSB - VISIBILITY
$$




USA.gov is the U.S. government's official web portal to all federal, state and local government web resources and services.